Погода в Кобылецкой Поляне

Украина / Закарпатская область     48°03′06″N   24°03′36″E
темп.,
°C
ветер,
м/с
пор.,
м/с
влажн.,
%
обл.,
%
осадки,
мм/ч
давл.,
гПа
погр.,
м
8 мая, сб
сб800:00+6ююз1298100 1.3 101266
03:00+7ююз1297100 1.9 1013118
06:00+4сз259210 1.9 1016251
09:00+5зсз23826 1.9 1019555
12:00+9з46528 0.0 10201682
15:00+10з665039 0.0 10202021
18:00+10з464911 0.0 10211613
21:00+4ссз118528 0.0 102311
9 мая, вс
вс900:00+2в11905 0.0 102512
03:00+1в119284 0.0 102712
06:00+1в21915 0.0 102716
09:00+7ю126688 0.0 1027363
12:00+13ююз115222 0.0 10261452
15:00+15зюз12465 0.0 10251735
18:00+15юз11505 0.0 10241393
21:00+8всв117588 0.0 102411
10 мая, пн
пн1000:00+5в21835 0.0 102613
03:00+4в22830 0.0 102614
06:00+4в22795 0.0 102515
09:00+12юв12545 0.0 1024254
12:00+17ю23460 0.0 1022749
15:00+20ю23400 0.0 10211189
18:00+19ююз12490 0.0 1020704
21:00+12в11733 0.0 102111
11 мая, вт
вт1100:00+9в22820 0.0 102213
03:00+8в22840 0.0 102113
06:00+8в11860 0.0 102112
09:00+15ююв11670 0.0 1020257
12:00+20ююз11530 0.0 1018717
15:00+23зюз11480 0.0 10161080
18:00+22з11550 0.0 1015884
21:00+15св01860 0.0 101511
12 мая, ср
ср1200:00+11в22850 0.0 101521
03:00+9в21780 0.0 101420
06:00+8в22820 0.0 101319
09:00+15вюв12590 0.0 1011316
12:00+20ю23440 0.0 10091122
15:00+22юз23444 0.0 10061429
18:00+20всв2460100 0.0 1005290
21:00+14в226591 0.1 100561